Regional Weather Roundup
Issued by NWS

Home | Current Version | Previous Version | Text Only | Print | Product List | Glossary Off
Versions: 1 2 3 4 5 6 7 8 9 10 11 12 13 14 15 16 17 18 19 20 21 22 23 24 25 26 27 28 29 30 31 32 33 34 35 36 37 38 39 40 41 42 43 44 45 46 47 48 49 50

000
ASUS43 KLMK 241610
RWRKY
KENTUCKY REGIONAL WEATHER ROUNDUP
NATIONAL WEATHER SERVICE LOUISVILLE KY
1200 PM EDT SUN JUL 24 2016

NOTE "FAIR" INDICATES FEW OR NO CLOUDS BELOW 12,000 FEET
WITH NO SIGNIFICANT WEATHER AND/OR OBSTRUCTIONS TO VISIBILITY.

KYZ001>023-026-027-061>063-070>075-241700-
WESTERN AND SOUTH CENTRAL KENTUCKY

CITY           SKY/WX    TMP DP  RH WIND       PRES   REMARKS
PADUCAH        MOSUNNY   88  75  65 S7        30.00R HX  97
HENDERSON      MOSUNNY   88  77  70 S7        29.99S HX 100
OWENSBORO      MOSUNNY   89  79  72 S7        30.02S HX 104
HOPKINSVILLE   MOSUNNY   86  76  72 SW9       30.03R HX  97
BOWLING GREEN  MOSUNNY   88  77  69 SW8       30.04R HX 100
GLASGOW        SUNNY     85  73  65 S3        30.05S HX  92
$$

KYZ024-025-028>034-038-045-046-053-241700-
NORTH CENTRAL KENTUCKY

CITY           SKY/WX    TMP DP  RH WIND       PRES   REMARKS
LOUISVILLE/SDF PTSUNNY   90  75  61 S9        30.02R HX 100
LOUISVILLE/LOU MOSUNNY   90  74  59 SW7       30.03R HX  99
FORT KNOX      MOSUNNY   88  76  66 S6        30.03R HX  98
$$

KYZ035>037-039>044-047>052-055>060-089>105-241700-
NORTHEAST KENTUCKY

CITY           SKY/WX    TMP DP  RH WIND       PRES   REMARKS
LEXINGTON      SUNNY     88  74  63 SW7       30.06S HX  96
COVINGTON      MOSUNNY   90  74  59 S12G18    30.04S HX  99
FRANKFORT      SUNNY     89  74  60 SW6       30.04R HX  98
$$

KYZ054-064>069-076>088-106>120-241700-
SOUTHEAST KENTUCKY

CITY           SKY/WX    TMP DP  RH WIND       PRES   REMARKS
JACKSON        MOSUNNY   85  74  69 CALM      30.09R HX  92
LONDON         SUNNY     86  71  60 S7        30.08R HX  91
SOMERSET       SUNNY     84  72  65 S5        30.08S
MIDDLESBORO    SUNNY     84  73  70 E3        30.10R HX  90
MONTICELLO     SUNNY    N/A N/A N/A W13       30.09R
$$




USA.gov is the U.S. government's official web portal to all federal, state and local government web resources and services.